FM1HN Weather Reports


Display with metric or nautical units.
time (UTC)temp
F
wind
direction
speed
MPH
gust
MPH
rain 1hr
in
rain 24hr
in
rain mn
in
humidity
%
barometer
mb
20190217151958 76 4 2.0 5.0 0.00 0.00 0.00 88 1018.7
20190217151457 76 4 2.0 5.0 0.00 0.00 0.00 88 1018.7
20190217150958 76 4 2.0 5.0 0.00 0.00 0.00 88 1018.7
20190217145957 76 4 2.0 5.0 0.00 0.00 0.00 88 1018.7
20190217145457 76 4 2.0 5.0 0.00 0.00 0.00 88 1018.7
20190217144959 76 4 2.0 5.0 0.00 0.00 0.00 88 1018.7
20190217144458 76 4 2.0 5.0 0.00 0.00 0.00 88 1018.7
20190217143958 76 4 2.0 5.0 0.00 0.00 0.00 88 1018.7
20190217143457 76 4 2.0 5.0 0.00 0.00 0.00 88 1018.7
20190217142958 76 4 2.0 5.0 0.00 0.00 0.00 88 1018.7
20190217142458 76 4 2.0 5.0 0.00 0.00 0.00 88 1018.7
20190217141958 76 4 2.0 5.0 0.00 0.00 0.00 88 1018.7
20190217141458 76 4 2.0 5.0 0.00 0.00 0.00 88 1018.7
20190217140958 76 4 2.0 5.0 0.00 0.00 0.00 88 1018.7
20190217135958 76 4 2.0 5.0 0.00 0.00 0.00 88 1018.7
20190217135458 76 4 2.0 5.0 0.00 0.00 0.00 88 1018.7
20190217134959 76 4 2.0 5.0 0.00 0.00 0.00 88 1018.7
20190217134458 76 4 2.0 5.0 0.00 0.00 0.00 88 1018.7
20190217133958 76 4 2.0 5.0 0.00 0.00 0.00 88 1018.7
20190217133458 76 4 2.0 5.0 0.00 0.00 0.00 88 1018.7
20190217132958 76 4 2.0 5.0 0.00 0.00 0.00 88 1018.7
20190217132459 76 4 2.0 5.0 0.00 0.00 0.00 88 1018.7
20190217131959 76 4 2.0 5.0 0.00 0.00 0.00 88 1018.7
20190217131458 76 4 2.0 5.0 0.00 0.00 0.00 88 1018.7
20190217130958 76 4 2.0 5.0 0.00 0.00 0.00 88 1018.7
20190217125959 76 4 2.0 5.0 0.00 0.00 0.00 88 1018.7
20190217125459 76 4 2.0 5.0 0.00 0.00 0.00 88 1018.7
20190217125000 76 4 2.0 5.0 0.00 0.00 0.00 88 1018.7
20190217124459 76 4 2.0 5.0 0.00 0.00 0.00 88 1018.7
20190217123959 76 4 2.0 5.0 0.00 0.00 0.00 88 1018.7
20190217123459 76 4 2.0 5.0 0.00 0.00 0.00 88 1018.7
20190217122959 76 4 2.0 5.0 0.00 0.00 0.00 88 1018.7
20190217122503 76 26 2.0 13.0 0.00 0.00 0.00 88 1018.9
20190217122000 76 345 2.0 5.0 0.00 0.00 0.00 91 1018.9
20190217121459 76 359 1.0 5.0 0.00 0.00 0.00 92 1019.0
20190217121000 76 14 0.0 2.0 0.00 0.00 0.00 92 1018.9
20190217120000 76 15 1.0 5.0 0.00 0.00 0.00 91 1018.7
20190217115459 75 6 0.0 2.0 0.00 0.00 0.00 91 1018.7
20190217114959 75 10 0.0 0.0 0.00 0.00 0.00 91 1018.6
20190217114500 75 10 0.0 5.0 0.00 0.00 0.00 92 1018.6
20190217114000 74 351 0.0 2.0 0.00 0.00 0.00 92 1018.6
20190217113500 74 12 0.0 2.0 0.00 0.00 0.00 94 1018.4
20190217113000 74 6 0.0 2.0 0.00 0.00 0.00 93 1018.4
20190217112501 74 343 0.0 2.0 0.00 0.00 0.00 94 1018.3
20190217112000 73 9 0.0 5.0 0.00 0.00 0.00 95 1017.9
20190217111500 73 352 0.0 2.0 0.00 0.00 0.00 96 1018.2
20190217111001 73 344 0.0 0.0 0.00 0.00 0.00 95 1018.0
20190217110000 73 339 0.0 2.0 0.00 0.00 0.00 95 1017.7
20190217105500 73 9 0.0 2.0 0.00 0.00 0.00 94 1017.5
20190217105000 73 3 0.0 0.0 0.00 0.00 0.00 93 1017.5
20190217104500 73 3 0.0 0.0 0.00 0.00 0.00 93 1017.5
20190217104003 73 4 0.0 0.0 0.00 0.00 0.00 95 1017.5
20190217103505 73 6 0.0 0.0 0.00 0.00 0.00 95 1017.4
20190217103007 73 12 1.0 5.0 0.00 0.00 0.00 95 1017.3
20190217102505 73 10 0.0 2.0 0.00 0.00 0.00 95 1017.3
20190217102005 73 10 0.0 2.0 0.00 0.00 0.00 95 1017.2
20190217101500 73 359 0.0 0.0 0.00 0.00 0.00 95 1017.0
20190217101000 73 357 0.0 5.0 0.00 0.00 0.00 95 1016.9
20190217100005 73 10 1.0 2.0 0.00 0.00 0.00 93 1016.6
20190217095502 73 7 0.0 5.0 0.00 0.00 0.00 92 1016.7
20190217095000 73 4 0.0 2.0 0.00 0.00 0.00 92 1016.7
20190217094500 73 13 0.0 5.0 0.00 0.00 0.00 94 1016.4
20190217094000 74 18 1.0 5.0 0.00 0.00 0.00 94 1016.4
20190217093459 74 356 0.0 2.0 0.00 0.00 0.00 94 1016.2
20190217093001 74 5 0.0 2.0 0.00 0.00 0.00 94 1016.1
20190217092501 74 14 1.0 5.0 0.00 0.00 0.00 95 1016.0
20190217092000 74 33 2.0 7.0 0.00 0.00 0.00 94 1015.9
20190217091501 74 334 0.0 2.0 0.00 0.00 0.00 94 1016.0
20190217091001 74 44 1.0 5.0 0.00 0.00 0.00 95 1016.3
20190217090001 74 1 0.0 2.0 0.00 0.00 0.00 95 1016.2
20190217085501 74 4 0.0 2.0 0.00 0.00 0.00 95 1016.1
20190217085001 74 351 0.0 0.0 0.00 0.00 0.00 95 1016.0
20190217084501 74 350 0.0 0.0 0.00 0.00 0.00 95 1016.2
20190217084001 74 10 0.0 2.0 0.00 0.00 0.00 95 1016.0
20190217083501 74 5 0.0 2.0 0.00 0.00 0.00 95 1016.0
20190217083002 74 353 0.0 2.0 0.00 0.00 0.00 95 1016.0
20190217082501 74 6 0.0 2.0 0.00 0.00 0.00 94 1015.8
20190217082001 74 2 0.0 2.0 0.00 0.00 0.00 94 1015.9
20190217081501 74 7 0.0 2.0 0.00 0.00 0.00 94 1015.8
20190217081002 74 11 0.0 2.0 0.00 0.00 0.00 94 1015.7
20190217080002 74 8 0.0 2.0 0.00 0.00 0.00 94 1015.7
20190217075502 74 350 0.0 2.0 0.00 0.00 0.00 94 1015.8
20190217075002 74 336 1.0 5.0 0.00 0.00 0.00 94 1015.7
20190217074502 74 7 0.0 2.0 0.00 0.00 0.00 94 1015.5
20190217074002 74 1 0.0 5.0 0.00 0.00 0.00 94 1015.9
20190217073502 74 17 0.0 5.0 0.00 0.00 0.00 94 1015.6
20190217073003 74 7 0.0 2.0 0.00 0.00 0.00 94 1015.7
20190217072502 74 15 0.0 2.0 0.00 0.00 0.00 94 1015.6
20190217072002 74 17 1.0 5.0 0.00 0.00 0.00 94 1015.6
20190217071502 74 1 0.0 2.0 0.00 0.00 0.00 94 1015.6
20190217071003 74 8 1.0 5.0 0.00 0.00 0.00 94 1015.3
20190217070002 74 22 2.0 7.0 0.00 0.00 0.00 94 1015.7
20190217065502 74 8 1.0 5.0 0.00 0.00 0.00 94 1015.7
20190217065003 74 15 1.0 5.0 0.00 0.00 0.00 94 1015.5
20190217064503 74 27 2.0 7.0 0.00 0.00 0.00 94 1015.6
20190217064003 74 10 1.0 5.0 0.00 0.00 0.00 94 1015.6
20190217063502 74 19 1.0 7.0 0.00 0.00 0.00 94 1015.6
20190217063003 74 32 2.0 10.0 0.00 0.00 0.00 94 1015.6
20190217062503 74 16 2.0 7.0 0.00 0.00 0.00 94 1015.8
20190217062003 74 18 1.0 5.0 0.00 0.00 0.00 94 1015.7
20190217061503 74 8 0.0 2.0 0.00 0.00 0.00 94 1015.5
20190217061003 74 8 0.0 5.0 0.00 0.00 0.00 93 1015.7
20190217060003 74 348 1.0 5.0 0.00 0.02 0.00 93 1016.1
20190217055503 74 7 1.0 7.0 0.00 0.02 0.00 94 1015.9
20190217055004 74 5 0.0 7.0 0.00 0.02 0.00 94 1016.0
20190217054504 74 355 0.0 5.0 0.00 0.02 0.00 94 1016.0
20190217054003 74 348 0.0 5.0 0.00 0.02 0.00 94 1016.2
20190217053503 74 348 0.0 2.0 0.00 0.02 0.00 94 1016.3
20190217053004 74 6 1.0 2.0 0.00 0.02 0.00 94 1016.3
20190217052504 74 348 0.0 5.0 0.00 0.02 0.00 94 1016.5
20190217052004 75 7 0.0 2.0 0.00 0.02 0.00 94 1016.4
20190217051504 75 351 0.0 2.0 0.00 0.02 0.00 94 1016.7
20190217051004 75 1 0.0 5.0 0.00 0.02 0.00 94 1016.9
20190217050004 75 0 0.0 5.0 0.00 0.02 0.00 94 1016.6
20190217045504 75 345 1.0 7.0 0.00 0.02 0.00 94 1016.9
20190217045004 75 347 1.0 5.0 0.00 0.02 0.00 94 1016.9
20190217044504 75 347 1.0 5.0 0.00 0.02 0.00 94 1016.8
20190217044005 75 13 1.0 5.0 0.00 0.02 0.00 94 1017.2
20190217043503 75 315 1.0 5.0 0.00 0.02 0.00 94 1017.1
20190217043003 75 5 1.0 7.0 0.00 0.02 0.00 94 1017.0
20190217042504 75 343 0.0 5.0 0.00 0.02 0.00 94 1017.1
20190217042004 75 16 2.0 7.0 0.00 0.02 0.00 94 1017.1
20190217041504 75 304 1.0 5.0 0.00 0.02 0.00 94 1017.1
20190217041005 75 0 1.0 5.0 0.00 0.02 0.00 94 1017.3
20190217040005 75 5 1.0 5.0 0.00 0.02 0.00 94 1017.3
20190217035505 75 344 2.0 7.0 0.00 0.02 0.02 94 1017.5
20190217035004 75 12 2.0 5.0 0.00 0.02 0.02 93 1017.3
20190217034504 75 349 0.0 2.0 0.00 0.02 0.02 92 1017.3
20190217034004 75 14 1.0 5.0 0.00 0.02 0.02 92 1017.5
20190217033504 75 0 1.0 7.0 0.00 0.02 0.02 92 1017.6
20190217033005 75 359 0.0 2.0 0.00 0.02 0.02 92 1017.5
20190217032504 75 26 1.0 7.0 0.00 0.02 0.02 93 1017.6
20190217032004 75 11 1.0 5.0 0.00 0.02 0.02 94 1017.5
20190217031504 75 345 0.0 5.0 0.00 0.02 0.02 93 1017.7
20190217031005 75 17 1.0 7.0 0.00 0.02 0.02 93 1017.6
20190217030005 75 29 1.0 7.0 0.00 0.02 0.02 94 1017.8
20190217025504 75 328 2.0 7.0 0.00 0.02 0.02 93 1017.8
20190217025006 75 341 0.0 5.0 0.00 0.02 0.02 93 1017.6
20190217024505 75 0 1.0 7.0 0.00 0.02 0.02 93 1017.7
20190217024005 75 349 0.0 2.0 0.00 0.02 0.02 93 1017.6
20190217023506 75 306 1.0 5.0 0.00 0.02 0.02 93 1017.6
20190217023005 75 35 1.0 10.0 0.00 0.02 0.02 93 1017.9
20190217022506 75 10 0.0 5.0 0.00 0.02 0.02 94 1017.8
20190217022005 75 346 0.0 5.0 0.00 0.02 0.02 94 1017.7
20190217021505 75 17 1.0 5.0 0.00 0.02 0.02 92 1017.8
20190217021005 75 10 1.0 7.0 0.00 0.02 0.02 92 1017.9
20190217020005 75 355 0.0 5.0 0.00 0.02 0.02 92 1017.8
20190217015506 75 302 1.0 5.0 0.00 0.02 0.02 92 1017.9
20190217015006 75 354 0.0 2.0 0.00 0.02 0.02 92 1017.7
20190217014506 75 21 1.0 5.0 0.00 0.02 0.02 92 1017.7
20190217014006 75 349 1.0 5.0 0.00 0.02 0.02 92 1017.8
20190217013506 75 10 1.0 5.0 0.00 0.02 0.02 92 1017.7
20190217013006 75 6 0.0 7.0 0.00 0.02 0.02 92 1017.7
20190217012506 75 12 1.0 2.0 0.00 0.02 0.02 92 1017.6
20190217012006 75 323 1.0 5.0 0.00 0.02 0.02 92 1017.4
20190217011506 75 24 1.0 7.0 0.00 0.02 0.02 92 1017.4
20190217011006 75 326 0.0 5.0 0.00 0.02 0.02 92 1017.4
20190217010006 75 353 1.0 5.0 0.00 0.02 0.02 92 1017.1
20190217005506 75 333 1.0 5.0 0.00 0.02 0.02 92 1017.2
20190217005006 75 357 0.0 5.0 0.00 0.02 0.02 92 1017.1
20190217004506 75 343 2.0 10.0 0.00 0.02 0.02 92 1017.1
20190217004007 75 352 0.0 7.0 0.00 0.02 0.02 93 1016.9
20190217003506 75 311 1.0 5.0 0.00 0.02 0.02 93 1017.0
20190217003007 75 35 2.0 10.0 0.00 0.02 0.02 93 1016.9
20190217002507 75 3 1.0 5.0 0.00 0.02 0.02 93 1016.7
20190217002007 75 3 1.0 2.0 0.00 0.02 0.02 93 1016.8
20190217001507 75 345 1.0 5.0 0.00 0.02 0.02 93 1016.7